星链-2644 (STARLINK-2644 )

导读 | 星芒AI

STARLINK-2644 是 SpaceX Starlink 项目中的一颗低轨通信卫星,属于第二代 Starlink 卫星(Gen2)。它于2023年发射,旨在为全球用户提供高速、低延迟的互联网服务。该卫星采用先进推进系统和激光通信技术,以提高网络效率和稳定性。作为 Starlink 卫星群的一部分,STARLINK-2644 轨道高度约为550公里,运行在特定轨道壳层,与其他卫星协同工作,扩大覆盖范围并提升服务质量。

基本信息
目录编号:
48442
目录名称:
STARLINK-2644
国际标识:
2021-040Q
轨道中心:
EARTH
卫星名称:
星链-2644
卫星全名:
星链-2644 (STARLINK-2644 )
卫星状态:
在轨 (已飞行1684 天)
发射日期:
2021-05-09 UTC
国别 :
美国 (US)
星等 :
--
轨道信息
数据来源 国际轨道数据 AOE轨道数据
星历时间 2025-12-18T04:50:25+0800
14小时前
查看轨道信息
2025-12-17T09:00:00+0800
1天前
查看轨道信息
半长轴 6925.348km 6925.36km
偏心率 0.0001639 0.0001493
轨道倾角 53.052° 53.052°
近地点辐角 92.318° 94.995°
升交点赤经 188.928° 192.639°
平近点角 267.799° 99.562°
近地点 546.077km 546.191km
远地点 548.349km 548.259km
周期 95.592分钟 95.592分钟
每日圈数 15.064005 15.063963
详细信息
固有亮度:
5
最大亮度:
2.5
卫星平台:
Starlink V1.0
覆盖范围:
全球
运营商:
太空探索技术公司
运营商所在国:
美国
制造商(研发单位):
太空探索技术公司
制造商所在国:
美国
使用方式:
暂无
卫星简介
星链(Starlink)计划是由太空探索技术公司(SpaceX)提出的一个巨型低轨卫星互联网星座项目,计划在2019年至2024年间在太空搭建由约1.2万颗卫星组成的“星链”网络,其中1584颗将部署在地球上空550千米处的近地轨道,并从2020年开始工作。该卫星仍在工作。
2D轨道图
3D轨道图
轨道高度分析图
轨道倾角分析图
轨道综合分析图
查看轨道综合分析图